When you browse on this site, cookies collect data to enhance your experience and personalize the content and advertising you see.
Visit our Privacy Policy to learn more. By continuing to use the site, you agree to this use of cookies and data.
  • In Hungary
  • List of Countries
  • For 7 days
  • Water Temperature
  • Satellite Maps
  • Weather Map
  • News
  • Weather Widgets
  • user-avatar
    Login

    Hourly Weather Tucupita

    Today, 21 January, Monday

    Time Temperature Precipitation Wind Pressure Humidity
    00:00 +24°C° 0 mm 1 mps 760 mmHg 95%
    01:00 +24°C° 0 mm 1 mps 760 mmHg 96%
    02:00 +23°C° 0 mm 1 mps 760 mmHg 98%
    03:00 +23°C° 0 mm 1 mps 760 mmHg 98%
    04:00 +23°C° 0 mm 1 mps 760 mmHg 98%
    05:00 +23°C° 0 mm 1 mps 760 mmHg 98%
    06:00 +24°C° 0 mm 1 mps 760 mmHg 94%
    07:00 +25°C° 0 mm 1 mps 761 mmHg 89%
    08:00 +26°C° 0 mm 1 mps 761 mmHg 85%
    09:00 +29°C° 0 mm 1 mps 761 mmHg 74%
    10:00 +31°C° 0 mm 2 mps 761 mmHg 63%
    11:00 +34°C° 0 mm 2 mps 761 mmHg 52%
    12:00 +34°C° 0 mm 2 mps 761 mmHg 51%
    13:00 +35°C° 0 mm 2 mps 760 mmHg 49%
    14:00 +35°C° 0 mm 2 mps 759 mmHg 47%
    15:00 +34°C° 0 mm 2 mps 759 mmHg 50%
    16:00 +34°C° 0 mm 2 mps 759 mmHg 52%
    17:00 +32°C° 0 mm 2 mps 758 mmHg 55%
    18:00 +31°C° 0 mm 2 mps 759 mmHg 62%
    19:00 +29°C° 0 mm 2 mps 759 mmHg 69%
    20:00 +27°C° 0 mm 2 mps 759 mmHg 75%
    21:00 +27°C° 0 mm 2 mps 760 mmHg 81%
    22:00 +26°C° 0 mm 2 mps 760 mmHg 87%
    23:00 +25°C° 0 mm 1 mps 761 mmHg 93%

    Tomorrow, 22 January, Tuesday

    Time Temperature Precipitation Wind Pressure Humidity
    00:00 +25°C° 0.1 mm 1 mps 760 mmHg 94%
    01:00 +24°C° 0.1 mm 1 mps 760 mmHg 96%
    02:00 +24°C° 0.1 mm 1 mps 760 mmHg 97%
    03:00 +24°C° 0.1 mm 1 mps 760 mmHg 98%
    04:00 +24°C° 0.1 mm 1 mps 760 mmHg 98%
    05:00 +24°C° 0.1 mm 1 mps 760 mmHg 98%
    06:00 +24°C° 0.1 mm 1 mps 760 mmHg 96%
    07:00 +25°C° 0.1 mm 1 mps 761 mmHg 94%
    08:00 +26°C° 0.1 mm 1 mps 761 mmHg 92%
    09:00 +28°C° 0.1 mm 2 mps 762 mmHg 81%
    10:00 +30°C° 0.1 mm 2 mps 762 mmHg 71%
    11:00 +33°C° 0.1 mm 3 mps 762 mmHg 60%
    12:00 +33°C° 0.2 mm 3 mps 761 mmHg 57%
    13:00 +34°C° 0.2 mm 3 mps 760 mmHg 54%
    14:00 +34°C° 0.2 mm 3 mps 759 mmHg 52%
    15:00 +33°C° 0.1 mm 3 mps 759 mmHg 56%
    16:00 +31°C° 0.1 mm 3 mps 758 mmHg 60%
    17:00 +31°C° 0.1 mm 3 mps 758 mmHg 64%
    18:00 +29°C° 0.1 mm 2 mps 759 mmHg 71%
    19:00 +27°C° 0.1 mm 2 mps 759 mmHg 78%
    20:00 +26°C° 0.1 mm 2 mps 760 mmHg 85%
    21:00 +25°C° 0 mm 2 mps 760 mmHg 87%
    22:00 +25°C° 0 mm 1 mps 761 mmHg 90%
    23:00 +25°C° 0 mm 1 mps 761 mmHg 92%

    Day after tomorrow, 23 January, Wednesday

    Time Temperature Precipitation Wind Pressure Humidity
    00:00 +24°C° 0 mm 1 mps 761 mmHg 92%
    01:00 +24°C° 0 mm 1 mps 760 mmHg 92%
    02:00 +24°C° 0 mm 1 mps 760 mmHg 92%
    03:00 +24°C° 0 mm 1 mps 760 mmHg 92%
    04:00 +24°C° 0 mm 1 mps 760 mmHg 93%
    05:00 +24°C° 0 mm 1 mps 760 mmHg 93%
    06:00 +25°C° 0 mm 1 mps 760 mmHg 89%
    07:00 +25°C° 0 mm 2 mps 761 mmHg 84%
    08:00 +26°C° 0 mm 2 mps 762 mmHg 80%
    09:00 +28°C° 0.1 mm 2 mps 762 mmHg 71%
    10:00 +30°C° 0.1 mm 3 mps 762 mmHg 63%
    11:00 +33°C° 0.1 mm 3 mps 762 mmHg 54%
    12:00 +33°C° 0.2 mm 3 mps 761 mmHg 55%
    13:00 +33°C° 0.2 mm 3 mps 760 mmHg 55%
    14:00 +32°C° 0.2 mm 2 mps 759 mmHg 56%
    15:00 +32°C° 0 mm 2 mps 759 mmHg 55%
    16:00 +32°C° 0 mm 2 mps 758 mmHg 53%
    17:00 +32°C° 0 mm 2 mps 758 mmHg 52%
    18:00 +30°C° 0 mm 2 mps 758 mmHg 60%
    19:00 +28°C° 0 mm 2 mps 759 mmHg 67%
    20:00 +27°C° 0 mm 2 mps 760 mmHg 75%
    21:00 +26°C° 0 mm 2 mps 760 mmHg 80%
    22:00 +25°C° 0 mm 1 mps 760 mmHg 86%
    23:00 +24°C° 0 mm 1 mps 761 mmHg 91%

    24 January, Thursday

    Time Temperature Precipitation Wind Pressure Humidity
    00:00 +24°C° 0 mm 1 mps 760 mmHg 93%
    01:00 +23°C° 0 mm 1 mps 760 mmHg 95%
    02:00 +23°C° 0 mm 1 mps 759 mmHg 98%
    03:00 +23°C° 0.2 mm 1 mps 759 mmHg 98%
    04:00 +23°C° 0.2 mm 1 mps 759 mmHg 98%
    05:00 +23°C° 0.2 mm 1 mps 759 mmHg 98%
    06:00 +24°C° 0.1 mm 1 mps 760 mmHg 95%
    07:00 +25°C° 0.1 mm 1 mps 760 mmHg 92%
    08:00 +25°C° 0.1 mm 2 mps 761 mmHg 90%
    09:00 +27°C° 0.1 mm 2 mps 761 mmHg 78%
    10:00 +29°C° 0.1 mm 2 mps 761 mmHg 67%
    11:00 +31°C° 0.1 mm 3 mps 761 mmHg 55%
    12:00 +31°C° 0 mm 2 mps 760 mmHg 54%
    13:00 +32°C° 0 mm 2 mps 759 mmHg 52%
    14:00 +32°C° 0 mm 2 mps 758 mmHg 51%
    15:00 +31°C° 0 mm 2 mps 758 mmHg 53%
    16:00 +31°C° 0 mm 2 mps 758 mmHg 55%
    17:00 +30°C° 0 mm 2 mps 757 mmHg 58%
    18:00 +29°C° 0 mm 2 mps 758 mmHg 63%
    19:00 +27°C° 0 mm 2 mps 759 mmHg 69%
    20:00 +26°C° 0 mm 2 mps 759 mmHg 74%
    21:00 +25°C° 0 mm 2 mps 759 mmHg 80%
    22:00 +24°C° 0 mm 1 mps 760 mmHg 86%
    23:00 +23°C° 0 mm 1 mps 760 mmHg 92%

    25 January, Friday

    Time Temperature Precipitation Wind Pressure Humidity
    00:00 +23°C° 0 mm 1 mps 760 mmHg 93%
    01:00 +22°C° 0 mm 1 mps 760 mmHg 95%
    02:00 +22°C° 0 mm 1 mps 760 mmHg 96%
    03:00 +22°C° 0 mm 1 mps 759 mmHg 97%
    04:00 +22°C° 0 mm 1 mps 759 mmHg 97%
    05:00 +22°C° 0 mm 1 mps 759 mmHg 98%
    06:00 +23°C° 0 mm 1 mps 760 mmHg 93%
    07:00 +24°C° 0 mm 1 mps 760 mmHg 87%
    08:00 +25°C° 0 mm 1 mps 761 mmHg 82%
    09:00 +27°C° 0 mm 1 mps 761 mmHg 70%
    10:00 +30°C° 0 mm 2 mps 761 mmHg 58%
    11:00 +32°C° 0 mm 2 mps 761 mmHg 46%
    12:00 +34°C° 0 mm 2 mps 760 mmHg 45%
    13:00 +34°C° 0 mm 2 mps 759 mmHg 45%
    14:00 +34°C° 0 mm 3 mps 758 mmHg 45%
    15:00 +34°C° 0 mm 3 mps 757 mmHg 48%
    16:00 +33°C° 0 mm 3 mps 757 mmHg 52%
    17:00 +31°C° 0 mm 3 mps 757 mmHg 55%
    18:00 +29°C° 0 mm 3 mps 757 mmHg 63%
    19:00 +28°C° 0 mm 2 mps 758 mmHg 71%
    20:00 +26°C° 0 mm 2 mps 758 mmHg 78%
    21:00 +25°C° 0 mm 2 mps 759 mmHg 82%
    22:00 +25°C° 0 mm 2 mps 759 mmHg 85%
    23:00 +24°C° 0 mm 1 mps 759 mmHg 88%

    26 January, Saturday

    Time Temperature Precipitation Wind Pressure Humidity
    00:00 +23°C° 0 mm 1 mps 759 mmHg 91%
    01:00 +23°C° 0 mm 1 mps 759 mmHg 94%
    02:00 +22°C° 0 mm 1 mps 759 mmHg 97%
    03:00 +22°C° 0 mm 1 mps 759 mmHg 97%
    04:00 +22°C° 0 mm 1 mps 759 mmHg 98%
    05:00 +21°C° 0 mm 1 mps 759 mmHg 98%
    06:00 +23°C° 0 mm 1 mps 759 mmHg 93%
    07:00 +24°C° 0 mm 1 mps 760 mmHg 88%
    08:00 +25°C° 0 mm 1 mps 760 mmHg 82%
    09:00 +27°C° 0 mm 1 mps 760 mmHg 71%
    10:00 +30°C° 0 mm 2 mps 760 mmHg 59%
    11:00 +32°C° 0 mm 2 mps 760 mmHg 47%
    12:00 +34°C° 0 mm 2 mps 759 mmHg 46%
    13:00 +34°C° 0 mm 3 mps 759 mmHg 45%
    14:00 +35°C° 0 mm 3 mps 758 mmHg 44%
    15:00 +34°C° 0 mm 3 mps 757 mmHg 47%
    16:00 +33°C° 0 mm 3 mps 757 mmHg 50%
    17:00 +31°C° 0 mm 3 mps 756 mmHg 53%
    18:00 +29°C° 0 mm 3 mps 756 mmHg 60%
    19:00 +28°C° 0 mm 2 mps 757 mmHg 67%
    20:00 +26°C° 0 mm 2 mps 757 mmHg 74%
    21:00 +25°C° 0 mm 2 mps 758 mmHg 79%
    22:00 +24°C° 0 mm 1 mps 758 mmHg 84%
    23:00 +23°C° 0 mm 1 mps 759 mmHg 90%
    Show more